Wetbulb
52.06 53.71 53.45 53.69 54.50 55.64 56.04 55.13 54.57 55.52 56.75 58.10 58.64 58.91 59.60 59.80 60.19 59.12 57.04 60.51 61.47 63.75 62.59 60.91 60.86 60.63 61.31 58.78 57.96 55.84 50.68 47.76 48.88 48.49 50.49 54.59 53.84 56.75 60.01 60.02 60.42 61.25 61.23 62.84 64.41
51.31 52.13 53.55 53.30 53.22 54.10 55.50 55.79 55.80 54.42 55.45 57.17 58.63 58.47 59.00 59.36 56.46 54.42 60.86 62.41 62.58 62.82 58.58 59.03 58.19 59.35 57.43 56.58 56.24 55.03 49.59 48.10 52.15 52.76 52.21 52.90 53.49 55.24 57.40 58.38 58.71 60.23 61.92 64.23 62.33
51.34 51.06 51.82 53.21 52.98 52.75 53.84 55.26 55.47 55.96 54.45 56.39 58.04 58.54 58.66 58.58 53.06 53.60 60.59 61.50 62.44 60.93 58.58 59.02 59.43 58.78 55.43 57.01 54.61 52.23 50.16 50.71 51.45 53.18 53.08 52.66 53.84 55.64 55.95 55.47 58.59 58.97 60.12 60.77 61.49
51.87 50.93 51.13 51.69 52.87 52.51 52.29 53.52 54.83 55.49 55.00 55.69 57.42 58.16 58.65 56.37 44.22 55.02 60.44 61.67 61.96 60.35 57.01 56.54 57.10 55.02 53.90 52.25 55.26 50.70 51.87 51.27 51.53 52.06 52.33 52.16 54.10 54.40 55.91 57.08 58.41 60.85 62.53 61.22 61.04
52.64 51.46 51.06 50.84 52.39 52.71 52.18 52.22 53.40 54.72 55.69 54.79 56.63 57.54 55.79 49.76 49.82 57.30 59.29 59.96 59.36 58.27 56.20 54.54 54.47 54.93 51.89 53.15 53.63 51.46 52.60 51.51 52.24 52.08 52.76 53.29 53.22 53.86 55.31 58.68 60.39 61.85 62.00 60.86 61.32
52.47 51.56 51.85 50.44 51.95 52.56 52.09 51.87 52.19 53.91 55.10 54.46 55.89 56.70 52.13 44.57 55.94 58.74 57.82 57.63 57.59 56.97 55.10 56.39 55.08 55.60 53.51 53.16 51.77 53.82 53.71 51.86 51.99 52.26 52.65 52.38 53.29 54.06 55.54 58.94 59.81 60.73 61.31 61.81 61.58
52.79 51.94 51.64 50.72 51.80 52.34 52.22 51.84 51.81 53.25 54.78 54.19 55.11 54.86 49.64 47.08 56.27 58.81 57.52 56.20 57.16 56.98 54.22 56.14 56.96 55.52 55.01 51.59 52.30 51.40 49.42 51.68 51.86 52.42 52.21 52.98 50.83 51.69 55.62 58.84 58.76 59.90 61.19 61.87 62.58
52.89 52.37 52.23 51.51 51.79 52.18 52.39 51.90 51.83 53.09 54.58 53.87 55.23 53.43 44.46 54.69 58.03 56.65 57.03 55.54 57.35 58.02 56.50 57.10 57.58 54.55 52.79 52.90 49.48 46.19 48.63 45.48 52.00 50.95 52.59 52.06 48.11 52.51 54.83 57.49 58.10 59.66 60.61 60.86 62.14
52.89 52.50 51.96 51.36 51.50 51.98 52.38 51.81 52.12 53.86 53.96 54.65 52.04 49.87 42.03 55.55 52.35 55.74 56.45 53.24 54.77 56.55 57.26 56.63 55.55 52.70 50.49 49.03 45.41 44.87 42.24 43.52 47.37 48.81 50.48 51.26 48.87 53.08 53.65 56.53 57.47 59.11 60.07 60.60 61.49
53.02 52.50 51.94 51.56 51.69 51.87 51.55 51.68 52.47 52.57 52.50 53.17 51.83 44.94 45.51 45.84 51.89 54.11 56.11 55.04 53.00 53.59 52.26 51.92 50.71 48.58 48.63 47.82 39.78 41.24 42.24 44.11 43.90 47.12 47.05 49.40 49.12 52.26 52.03 55.19 56.91 58.42 59.53 60.13 60.73
52.60 51.88 52.04 51.96 51.54 51.47 50.65 50.13 45.14 43.07 46.79 40.70 40.71 42.72 45.84 49.59 52.66 51.71 54.26 52.52 51.47 50.37 46.21 49.07 45.61 42.97 46.04 48.46 46.01 46.01 45.00 43.57 45.09 45.37 46.17 47.91 48.61 51.10 51.78 51.50 54.98 57.71 58.53 59.54 60.54
52.11 51.98 52.20 52.06 51.86 51.66 50.31 44.21 42.37 44.34 37.40 44.28 45.37 45.90 47.75 49.64 43.82 48.09 53.62 47.57 46.70 43.25 47.19 45.27 41.96 45.87 48.13 48.15 46.45 44.76 44.06 43.52 43.43 45.46 44.04 45.55 46.71 48.95 50.45 50.98 52.51 54.73 57.76 59.22 60.12
52.09 52.14 52.22 51.93 51.59 49.42 45.99 45.22 49.62 48.48 39.32 39.69 43.99 44.41 44.85 47.68 43.16 43.77 49.82 47.41 44.13 42.67 43.04 41.39 43.06 47.54 45.78 44.96 44.66 44.59 43.28 42.97 43.38 42.97 44.97 44.72 44.41 46.72 50.43 49.04 47.84 50.20 53.99 58.78 59.65
52.18 52.16 52.17 51.94 46.43 46.75 43.67 48.06 50.37 48.06 32.47 33.31 37.83 41.96 45.95 46.37 40.87 46.98 50.24 47.05 44.33 40.08 42.33 41.55 45.58 44.93 44.24 42.42 44.47 40.58 46.24 45.48 42.24 42.04 38.67 45.41 38.54 46.02 49.52 47.15 44.43 46.89 50.89 53.29 52.51
52.40 52.32 52.01 49.60 46.28 42.84 45.62 49.49 49.84 43.95 17.41 33.00 37.86 47.50 45.84 41.61 43.06 43.76 50.25 46.83 41.12 40.87 41.63 38.41 41.50 41.72 41.91 43.02 46.13 42.27 46.28 44.57 43.99 40.85 39.68 40.07 38.23 44.64 47.96 44.70 43.15 43.76 46.05 47.50 48.79
52.33 52.26 50.77 48.36 48.42 47.45 49.77 49.10 45.31 29.96 16.76 30.80 38.01 37.20 38.18 40.11 40.90 44.62 44.62 48.02 45.78 41.77 42.34 40.43 44.00 44.43 44.46 46.82 47.33 45.81 42.84 41.48 40.49 40.28 34.30 39.21 38.25 39.78 42.53 45.39 42.40 42.58 43.09 43.69 44.26
52.32 51.00 48.61 48.07 44.46 49.15 48.22 44.40 29.73 22.03 28.86 29.73 32.80 35.71 34.51 34.57 36.74 39.69 39.01 38.38 36.85 33.40 34.03 39.05 40.45 42.73 45.34 42.76 44.98 44.48 40.56 32.69 32.04 31.71 32.23 36.16 38.34 41.03 44.99 45.58 43.43 41.61 41.72 42.83 43.82
49.43 47.61 45.34 46.17 49.06 48.22 46.79 35.99 20.41 19.42 24.25 32.36 33.82 34.28 31.48 34.48 35.50 37.22 37.36 34.46 38.47 38.20 35.07 32.92 30.55 39.91 44.59 42.57 40.28 40.15 39.50 34.76 29.23 30.09 32.58 35.01 34.49 40.42 42.43 43.99 43.90 43.27 42.63 42.99 42.62
47.26 44.19 43.99 44.11 47.61 47.98 39.38 27.47 25.19 24.10 28.34 29.46 31.81 30.72 31.06 34.43 34.72 35.57 34.94 34.95 37.77 38.74 33.55 33.93 32.68 40.27 41.54 42.91 43.17 39.70 35.96 38.64 31.93 28.08 31.60 35.58 37.70 39.02 41.22 40.84 41.01 40.62 41.69 42.44 42.58
43.73 42.05 41.19 42.42 47.16 42.64 33.15 28.65 28.27 32.23 32.96 32.13 27.59 30.37 27.70 31.06 31.40 33.26 33.56 37.24 36.78 40.42 40.34 36.75 32.12 36.94 39.52 42.37 41.79 40.90 41.39 33.57 35.13 28.48 27.77 31.18 33.40 37.84 36.54 37.83 39.58 39.76 41.03 42.48 42.56
42.59 39.18 40.99 41.70 41.92 36.24 29.70 29.50 31.24 35.93 36.09 32.81 29.79 29.26 30.41 30.51 33.06 31.45 32.82 35.77 38.77 38.48 40.84 38.27 35.47 33.83 36.98 37.04 35.09 36.37 36.10 35.01 36.58 33.78 29.81 28.26 32.92 35.97 39.65 40.09 39.52 40.60 41.90 41.63 40.36
39.30 33.62 39.98 41.08 33.73 26.45 27.85 29.41 33.81 33.53 35.29 34.24 34.45 32.50 31.08 31.95 31.48 32.94 32.96 34.17 39.83 40.45 35.92 38.64 35.72 31.36 32.98 36.41 38.68 37.53 37.31 36.68 34.49 29.76 29.34 29.21 31.59 35.59 36.76 42.60 42.18 41.46 41.28 40.28 39.46
37.23 36.31 39.06 39.59 30.22 27.22 29.30 30.79 32.31 31.12 31.13 32.28 31.76 34.16 33.80 31.10 30.51 33.40 34.12 37.55 39.44 39.53 36.69 37.73 33.74 29.10 29.66 33.92 35.72 35.31 36.35 36.91 34.81 33.42 27.82 29.78 33.91 36.90 39.04 42.67 43.85 41.03 40.26 38.46 37.20
36.07 32.28 33.97 33.93 30.39 29.99 26.94 27.81 28.43 33.26 30.82 32.43 30.95 32.91 32.81 31.19 32.99 31.86 32.74 36.58 38.84 40.35 41.18 39.71 33.24 30.69 29.72 31.12 35.43 32.75 34.06 35.57 35.73 31.35 31.78 30.67 32.08 33.52 38.55 41.53 41.07 39.45 38.17 36.63 36.05
33.24 29.26 26.55 30.62 29.69 28.25 28.42 27.16 27.21 26.70 30.49 31.94 30.32 28.78 28.99 28.44 29.75 31.27 33.48 34.57 37.66 40.45 39.36 37.88 31.47 31.01 31.44 32.99 34.40 35.37 34.97 34.01 34.95 36.38 32.78 33.83 32.23 35.43 37.14 39.00 38.89 39.30 37.37 36.37 34.30
32.95 30.46 28.12 25.91 27.05 28.09 25.27 25.84 25.93 25.78 28.04 28.31 28.11 29.34 30.36 29.12 29.72 28.08 33.00 33.80 34.02 36.72 37.03 36.47 30.93 30.80 27.76 31.61 33.88 32.51 34.04 36.38 36.22 35.28 34.44 34.42 33.06 37.83 38.94 39.39 37.60 36.76 36.40 34.55 34.14
32.88 33.00 36.12 27.08 26.42 27.72 27.62 26.77 27.36 29.33 29.53 30.55 30.95 29.91 28.36 29.01 32.58 32.64 34.43 35.82 36.28 34.94 34.89 34.78 30.84 29.02 28.11 29.24 31.36 27.87 32.33 33.49 35.76 36.78 37.17 32.16 37.25 36.75 35.10 35.65 36.37 36.67 36.26 35.04 34.38
MSLP
1023.02 1023.01 1022.99 1022.99 1022.91 1022.65 1022.51 1022.33 1022.26 1022.04 1021.71 1021.28 1021.22 1020.84 1020.61 1020.40 1019.97 1019.92 1019.66 1019.29 1019.21 1019.03 1018.88 1018.42 1018.27 1017.69 1017.45 1017.53 1017.50 1017.41 1016.57 1015.88 1015.97 1016.09 1016.37 1016.48 1016.09 1016.21 1016.47 1016.33 1016.76 1017.26 1017.36 1017.94 1019.34
1023.14 1022.98 1022.94 1022.93 1022.92 1022.74 1022.57 1022.39 1022.29 1022.17 1021.94 1021.49 1021.21 1020.65 1020.51 1020.31 1020.03 1019.74 1019.94 1019.34 1019.47 1019.33 1018.88 1018.62 1018.22 1017.64 1017.29 1017.62 1017.59 1017.14 1016.85 1016.53 1016.81 1016.83 1016.63 1016.84 1016.53 1016.19 1016.20 1016.29 1016.61 1017.27 1018.23 1018.65 1019.72
1023.07 1022.93 1022.83 1022.89 1023.03 1022.79 1022.55 1022.48 1022.28 1022.18 1021.94 1021.62 1021.13 1020.80 1020.34 1020.14 1020.12 1019.77 1019.82 1019.75 1019.63 1019.75 1019.28 1018.87 1018.77 1017.68 1017.27 1017.63 1017.64 1017.59 1017.14 1017.11 1017.27 1017.21 1017.17 1016.96 1016.65 1016.60 1016.13 1015.89 1015.88 1016.41 1017.99 1019.11 1019.61
1022.88 1022.84 1022.78 1022.69 1022.81 1022.83 1022.57 1022.43 1022.34 1022.18 1022.00 1021.69 1021.27 1021.03 1020.35 1020.41 1020.26 1019.71 1019.60 1019.66 1019.63 1019.35 1019.45 1019.42 1018.85 1018.12 1017.49 1017.42 1017.59 1017.70 1017.73 1017.54 1017.61 1017.63 1017.35 1017.07 1017.00 1016.51 1016.30 1015.74 1016.35 1016.44 1017.64 1018.84 1019.32
1022.71 1022.72 1022.73 1022.69 1022.66 1022.60 1022.57 1022.33 1022.28 1022.10 1021.98 1021.69 1021.36 1020.83 1020.46 1020.23 1019.92 1019.61 1019.43 1019.34 1019.27 1019.09 1018.64 1018.78 1018.65 1018.13 1017.32 1017.35 1017.76 1017.80 1017.95 1017.91 1017.63 1017.78 1017.57 1017.37 1016.85 1016.66 1016.16 1016.00 1016.56 1016.81 1017.80 1018.79 1019.26
1022.51 1022.59 1022.52 1022.54 1022.53 1022.49 1022.48 1022.35 1022.14 1022.03 1021.85 1021.66 1021.32 1020.88 1020.51 1020.13 1019.93 1019.74 1019.50 1019.46 1019.09 1018.83 1018.74 1018.49 1018.33 1018.07 1018.21 1017.42 1018.24 1018.03 1018.13 1018.01 1017.60 1017.63 1017.67 1017.29 1016.77 1016.94 1016.46 1016.51 1016.65 1017.18 1017.75 1018.52 1019.19
1022.29 1022.34 1022.34 1022.43 1022.35 1022.42 1022.38 1022.31 1022.16 1022.01 1021.79 1021.61 1021.27 1020.87 1020.45 1019.94 1019.93 1019.71 1019.50 1019.65 1019.52 1019.15 1018.93 1019.02 1018.80 1018.40 1018.56 1019.12 1019.33 1019.29 1018.75 1018.11 1017.76 1017.59 1017.68 1017.55 1016.66 1016.58 1016.74 1016.83 1016.65 1017.01 1017.60 1018.16 1018.80
1022.02 1022.16 1022.33 1022.33 1022.37 1022.30 1022.28 1022.28 1022.13 1021.98 1021.71 1021.49 1021.28 1020.90 1020.04 1020.14 1020.05 1019.80 1019.56 1019.86 1019.48 1019.22 1019.33 1019.24 1019.12 1019.12 1019.60 1020.02 1019.94 1019.84 1019.43 1018.21 1017.37 1017.92 1017.86 1017.77 1016.30 1016.46 1016.78 1016.82 1016.65 1016.85 1017.34 1018.08 1018.53
1021.80 1022.01 1022.16 1022.29 1022.30 1022.19 1022.24 1022.23 1022.05 1021.84 1021.68 1021.50 1021.33 1020.89 1020.00 1019.89 1020.14 1020.08 1019.91 1019.83 1019.61 1019.55 1019.29 1019.37 1019.46 1019.41 1020.07 1019.78 1019.92 1019.92 1019.10 1018.53 1018.07 1018.18 1018.06 1017.46 1016.32 1016.45 1016.71 1016.82 1016.69 1016.81 1017.16 1017.82 1018.38
1021.52 1021.76 1022.00 1022.19 1022.13 1022.16 1022.20 1022.08 1021.92 1021.76 1021.71 1021.51 1021.41 1021.28 1020.27 1019.94 1020.07 1020.09 1019.94 1019.84 1019.53 1019.48 1019.57 1019.67 1019.53 1019.51 1019.67 1019.26 1019.07 1019.34 1019.32 1018.71 1018.37 1018.30 1018.42 1017.55 1016.66 1016.55 1016.59 1016.68 1016.73 1016.91 1017.25 1017.74 1018.25
1021.29 1021.67 1021.85 1022.05 1022.09 1022.15 1022.26 1022.16 1022.28 1022.20 1021.69 1021.27 1020.98 1020.57 1020.02 1020.10 1020.13 1019.89 1019.90 1019.74 1019.56 1019.63 1019.40 1019.43 1019.49 1018.90 1018.93 1018.82 1019.11 1018.90 1019.08 1019.06 1018.96 1018.97 1018.65 1017.73 1016.99 1016.44 1016.67 1016.73 1016.66 1016.85 1017.32 1017.75 1018.29
1021.17 1021.55 1021.81 1021.93 1022.07 1022.23 1022.30 1022.07 1022.05 1022.48 1021.94 1021.61 1021.30 1020.95 1020.50 1020.25 1020.05 1020.08 1020.26 1020.24 1019.83 1019.46 1019.58 1019.70 1019.08 1019.13 1018.82 1019.16 1019.21 1019.37 1019.05 1019.36 1019.85 1019.66 1019.83 1018.61 1017.57 1016.81 1016.81 1016.91 1017.00 1017.01 1017.33 1017.94 1018.69
1021.09 1021.50 1021.69 1021.86 1022.07 1022.42 1022.29 1022.25 1022.34 1022.32 1021.93 1021.81 1021.38 1020.85 1020.36 1020.43 1019.95 1019.90 1019.95 1019.86 1019.70 1019.53 1019.65 1019.16 1018.91 1018.58 1018.62 1018.68 1019.25 1019.14 1019.07 1019.37 1019.51 1020.03 1019.83 1019.04 1017.80 1016.98 1016.65 1017.48 1017.99 1018.15 1018.24 1018.42 1019.02
1020.99 1021.38 1021.70 1021.96 1022.63 1022.45 1022.24 1022.26 1022.36 1022.34 1022.04 1021.89 1021.62 1020.96 1020.67 1020.43 1020.20 1020.08 1020.05 1020.13 1020.13 1019.79 1019.93 1019.70 1019.17 1018.68 1018.91 1018.99 1019.21 1019.38 1019.32 1019.53 1019.91 1020.23 1020.10 1019.41 1017.86 1016.71 1016.69 1017.33 1018.23 1018.97 1019.24 1019.74 1020.39
1020.98 1021.44 1021.80 1022.00 1022.36 1022.52 1022.51 1022.49 1022.45 1022.44 1022.21 1022.08 1021.48 1021.02 1020.69 1020.58 1020.31 1020.18 1020.24 1019.93 1019.94 1019.65 1019.78 1019.07 1019.09 1018.95 1018.98 1018.77 1019.12 1019.63 1019.72 1019.92 1020.26 1020.59 1020.39 1020.00 1019.24 1016.64 1017.06 1017.65 1018.50 1019.67 1020.66 1021.05 1021.54
1021.09 1021.56 1021.94 1022.35 1022.39 1022.48 1022.49 1022.49 1022.64 1022.92 1022.36 1022.01 1021.38 1021.21 1020.95 1020.69 1020.51 1020.46 1020.38 1020.39 1020.71 1020.24 1019.95 1019.76 1019.75 1019.41 1019.18 1018.98 1019.11 1019.83 1020.10 1020.68 1021.11 1021.06 1020.53 1019.80 1019.51 1017.47 1017.56 1017.49 1018.91 1020.24 1021.42 1022.11 1022.65
1021.09 1021.74 1022.05 1022.38 1022.65 1022.51 1022.41 1022.64 1023.16 1023.07 1023.25 1022.74 1022.03 1021.52 1021.09 1020.80 1020.70 1020.38 1020.36 1020.59 1020.54 1020.43 1020.10 1020.20 1020.12 1020.01 1019.82 1019.66 1019.96 1019.49 1020.32 1021.22 1021.65 1021.15 1020.20 1020.07 1019.71 1017.69 1017.93 1018.23 1019.08 1020.43 1021.95 1022.83 1023.19
1021.43 1021.78 1022.69 1022.91 1022.91 1022.61 1022.40 1023.09 1023.67 1024.02 1023.71 1023.22 1022.73 1022.25 1021.62 1021.19 1020.96 1020.80 1020.57 1020.52 1020.88 1020.62 1020.25 1020.35 1021.03 1020.37 1020.12 1019.87 1019.56 1020.21 1020.24 1019.99 1020.20 1020.41 1020.36 1020.66 1019.38 1018.22 1018.68 1018.95 1019.85 1021.24 1022.42 1023.21 1023.91
1021.53 1022.44 1022.74 1023.22 1023.13 1022.60 1023.12 1023.43 1023.51 1023.92 1023.88 1023.63 1023.15 1022.54 1022.15 1021.61 1021.36 1021.21 1021.08 1020.75 1020.41 1020.65 1020.37 1020.53 1020.97 1021.22 1020.92 1020.74 1020.50 1020.56 1020.60 1020.71 1020.42 1021.36 1020.73 1019.83 1019.38 1019.37 1019.51 1020.15 1021.06 1022.13 1023.11 1023.95 1024.89
1021.97 1022.52 1023.36 1023.62 1023.37 1023.24 1023.82 1023.79 1024.07 1023.98 1023.98 1023.90 1023.21 1022.78 1022.30 1021.97 1021.97 1021.68 1021.39 1021.11 1020.66 1020.71 1020.78 1020.81 1021.16 1021.60 1021.47 1021.35 1021.13 1020.68 1020.80 1021.19 1021.10 1020.78 1020.12 1019.51 1019.24 1018.29 1019.62 1020.34 1021.57 1022.62 1023.72 1024.89 1026.04
1022.32 1022.95 1023.86 1023.85 1023.83 1024.12 1024.28 1024.27 1024.17 1024.04 1023.97 1023.78 1023.47 1023.15 1022.67 1022.37 1021.97 1021.81 1021.44 1021.34 1020.76 1020.75 1020.95 1021.22 1021.31 1022.42 1022.33 1021.92 1021.72 1021.82 1021.13 1021.13 1020.66 1020.37 1019.67 1019.19 1018.50 1018.88 1019.20 1020.20 1021.32 1022.76 1024.27 1025.56 1026.67
1022.85 1023.58 1024.21 1023.99 1024.69 1025.31 1024.88 1024.74 1024.41 1024.06 1024.17 1023.71 1023.59 1023.39 1023.00 1022.57 1022.21 1021.97 1021.54 1021.40 1021.02 1020.80 1021.00 1021.38 1021.77 1021.95 1022.22 1022.29 1022.09 1021.53 1021.16 1020.82 1020.23 1020.34 1019.98 1019.70 1018.98 1019.61 1019.88 1020.32 1021.41 1022.88 1024.65 1025.88 1026.96
1023.11 1023.94 1024.35 1024.17 1024.93 1025.27 1025.20 1024.76 1024.41 1024.14 1024.06 1023.88 1023.63 1023.43 1023.28 1022.82 1022.47 1021.90 1021.64 1021.53 1021.20 1021.03 1021.17 1021.51 1021.92 1022.09 1022.43 1022.58 1022.35 1021.93 1021.64 1021.28 1020.66 1020.03 1019.70 1019.52 1019.04 1019.64 1019.85 1020.49 1021.73 1022.97 1024.87 1026.15 1027.07
1023.53 1024.31 1024.71 1024.81 1025.62 1025.16 1025.12 1024.85 1024.49 1024.20 1024.08 1024.05 1023.90 1023.67 1023.30 1023.05 1022.76 1022.27 1022.03 1022.04 1021.82 1021.46 1021.44 1021.55 1021.79 1021.49 1021.16 1020.80 1021.04 1021.60 1021.45 1021.35 1020.82 1020.68 1019.76 1018.97 1019.07 1019.88 1020.27 1020.70 1022.09 1023.54 1024.90 1025.95 1027.12
1023.98 1024.98 1025.55 1025.56 1025.72 1025.31 1025.02 1025.04 1024.76 1024.51 1024.30 1024.09 1023.97 1023.93 1023.70 1023.37 1023.18 1022.78 1022.60 1022.45 1022.29 1021.83 1021.76 1021.79 1021.76 1021.73 1021.57 1021.24 1020.90 1020.80 1020.77 1021.11 1020.70 1020.00 1019.55 1018.61 1018.62 1018.97 1020.02 1020.89 1022.31 1023.57 1024.95 1025.92 1027.00
1023.97 1024.80 1025.75 1025.55 1025.77 1025.21 1025.03 1024.98 1024.73 1024.91 1024.70 1024.32 1024.24 1024.18 1023.92 1023.86 1023.78 1023.41 1023.02 1022.59 1022.22 1022.28 1022.01 1021.94 1022.02 1021.97 1021.95 1021.65 1021.28 1020.99 1020.83 1020.73 1020.45 1020.01 1019.29 1018.90 1018.72 1018.88 1020.07 1021.48 1022.58 1023.57 1024.62 1025.71 1026.46
1024.00 1024.21 1023.93 1025.28 1025.37 1025.05 1024.65 1024.69 1024.63 1024.71 1024.94 1024.85 1024.81 1024.74 1024.67 1024.86 1024.57 1024.40 1023.88 1023.16 1022.69 1022.32 1022.24 1022.23 1022.24 1022.50 1022.33 1022.02 1021.66 1021.25 1019.79 1019.66 1019.25 1018.91 1018.28 1018.02 1018.19 1019.33 1020.35 1020.93 1021.53 1022.62 1023.84 1024.90 1025.97
Wind_Speed
5 7 7 7 9 9 8 8 9 8 9 11 7 8 9 10 8 5 4 2 2 5 4 3 4 8 3 2 1 1 3 4 2 1 4 4 2 2 1 5 3 2 1 2 19
5 5 6 6 6 8 9 7 8 9 8 10 12 8 10 10 2 3 3 1 2 4 4 2 8 9 10 3 3 4 3 2 2 2 2 3 3 1 4 5 5 5 5 14 18
4 4 5 6 6 6 7 9 8 8 8 9 11 8 9 6 3 2 5 3 4 4 1 2 6 5 15 6 5 3 4 2 3 1 3 5 1 1 3 5 4 6 12 15 19
6 4 5 4 6 5 5 6 8 9 8 9 10 10 8 2 5 2 7 4 3 4 6 3 4 7 10 13 8 8 4 3 4 1 1 3 5 2 6 2 3 4 15 18 18
8 6 4 7 5 5 6 5 6 8 9 8 9 10 3 3 1 4 5 5 3 3 5 6 5 8 16 7 8 13 11 6 4 2 1 3 3 4 7 5 3 8 14 16 17
5 3 6 7 6 7 5 6 5 7 7 8 8 8 3 4 1 3 5 3 2 2 2 4 3 1 3 4 12 10 16 9 5 3 0 3 3 3 3 3 4 9 12 14 16
7 4 6 6 7 7 6 5 6 6 7 6 7 3 2 1 3 4 2 1 2 0 2 1 1 2 7 5 1 2 13 9 9 5 4 3 7 5 3 3 4 7 9 11 14
6 4 6 4 7 7 7 5 6 6 7 5 6 3 4 1 3 2 1 1 1 2 1 2 1 5 1 6 4 3 6 16 11 7 6 6 10 4 2 3 6 6 7 9 12
7 5 5 5 6 7 7 4 6 7 5 4 2 3 3 3 1 1 2 1 2 1 3 2 2 3 3 7 4 3 4 16 19 7 4 11 13 3 2 4 7 7 7 8 9
9 7 6 4 4 5 3 4 3 4 1 2 0 3 3 2 0 0 1 0 1 4 4 3 2 4 4 8 7 5 4 11 21 10 6 12 16 6 3 4 7 7 6 7 8
9 6 7 4 5 4 1 1 3 3 3 2 2 2 2 2 1 1 0 1 1 2 6 3 3 6 9 13 2 6 7 3 0 2 5 15 15 13 6 5 6 7 7 8 8
10 7 7 5 7 4 2 2 1 3 3 4 2 4 3 2 2 1 3 7 5 6 4 2 5 2 5 5 4 1 5 7 3 4 6 7 15 10 6 6 7 5 7 8 10
9 7 6 8 8 3 2 2 3 1 2 1 3 3 1 3 2 4 9 5 4 8 7 9 0 9 3 5 7 5 6 4 4 3 1 1 8 10 11 7 1 2 1 7 11
9 7 9 12 4 3 3 1 0 1 1 3 2 2 4 3 4 0 5 5 4 12 7 8 8 6 8 11 5 3 4 5 9 6 5 7 4 14 18 10 5 2 5 7 11
8 11 11 4 6 3 2 1 3 2 3 2 3 2 2 4 4 2 1 7 10 9 7 6 6 9 8 10 11 2 4 5 5 6 1 5 4 4 9 14 9 7 7 9 10
10 11 13 4 1 1 2 2 1 3 4 1 3 3 7 6 1 5 3 3 2 4 3 5 1 5 8 5 13 12 8 6 4 2 6 9 8 3 7 15 10 9 10 11 13
14 12 4 2 1 2 1 1 2 4 2 3 1 4 8 7 5 3 7 9 4 5 6 6 4 2 1 8 6 5 9 3 3 4 5 0 10 8 3 5 14 16 15 14 16
14 9 5 3 4 2 0 2 3 1 4 2 1 2 7 5 4 5 7 8 5 6 4 8 5 10 6 4 6 10 5 4 6 5 4 2 8 2 4 5 13 14 16 17 17
10 3 3 5 6 2 3 4 3 4 3 3 3 4 5 3 1 4 5 4 6 6 4 5 3 0 3 1 2 7 6 2 5 2 2 5 2 4 8 13 16 17 18 17 15
3 3 3 7 4 3 1 0 2 3 2 1 4 2 8 8 7 6 8 3 7 10 1 3 4 2 3 1 3 4 13 3 2 6 6 5 5 5 13 17 18 19 18 15 12
3 2 2 4 2 2 0 1 2 4 4 4 3 3 3 5 6 4 5 1 5 8 8 3 2 4 1 5 6 5 5 3 2 2 3 2 3 3 14 18 21 19 15 11 11
2 2 3 1 1 1 1 2 3 2 3 1 2 2 3 3 6 5 7 2 5 10 9 3 1 3 3 1 2 1 2 4 6 5 2 2 2 2 6 15 18 16 13 12 11
2 2 2 1 3 2 1 2 2 0 1 1 1 1 2 2 4 4 5 2 3 5 9 8 4 4 3 1 1 3 2 4 2 1 6 5 2 4 5 15 16 18 15 12 12
2 2 2 3 2 3 4 3 3 3 2 2 1 2 3 4 1 2 6 3 1 5 5 4 2 3 1 4 5 5 5 6 3 3 4 5 2 4 8 16 17 17 16 13 12
3 1 2 2 2 3 2 3 1 3 1 1 2 1 4 3 3 4 2 4 1 4 7 5 4 2 1 1 2 4 9 10 7 6 8 1 7 10 16 16 16 16 16 16 15
3 4 2 3 2 3 1 3 3 2 2 1 1 4 5 2 2 4 2 4 3 3 4 4 4 2 0 1 3 3 6 14 14 8 7 7 7 4 14 14 17 18 18 17 16
2 1 1 1 1 1 1 3 1 3 2 2 2 1 6 4 5 5 3 2 1 3 3 5 6 4 4 1 3 5 17 16 12 12 12 12 4 15 16 19 21 21 20 19 18
Wind_Direction
343 1 348 347 354 359 344 350 347 355 360 355 350 350 342 345 313 176 215 88 292 302 306 334 236 207 146 160 117 213 255 157 95 84 88 23 288 120 115 147 170 106 68 67 139
324 330 349 329 344 352 356 348 355 355 350 350 339 338 335 347 287 221 34 338 240 303 302 195 187 185 203 147 147 230 267 137 52 40 34 359 312 244 210 167 183 161 81 130 145
275 293 313 337 326 340 350 355 355 351 348 344 343 323 333 342 289 110 332 272 229 189 116 285 255 191 199 186 171 152 241 159 136 41 337 342 64 274 238 207 217 207 155 159 157
258 266 290 299 312 315 336 349 348 345 342 341 347 336 330 274 212 2 335 299 228 187 170 129 207 170 189 192 178 220 241 216 145 168 328 331 320 244 251 37 6 239 160 165 170
247 247 255 288 290 289 310 335 341 342 333 333 341 340 312 208 257 317 344 301 254 199 175 160 183 190 207 184 208 222 208 208 159 161 283 304 303 310 256 270 28 142 158 176 179
248 263 244 265 269 280 291 326 333 328 329 327 334 330 283 206 359 302 336 290 346 215 162 162 178 336 123 114 205 216 219 205 186 173 217 284 316 289 58 312 140 160 173 180 186
252 266 230 256 257 269 270 311 324 318 321 320 325 316 262 212 348 316 21 310 291 179 161 164 80 197 134 138 49 222 211 198 208 207 238 270 261 245 10 289 226 188 182 185 191
234 254 221 255 264 257 258 294 317 307 304 309 318 252 243 23 324 277 359 248 333 40 77 80 183 93 74 122 75 155 205 219 195 200 212 223 252 257 353 237 239 213 196 192 191
220 224 215 237 268 248 254 296 305 296 284 311 245 247 221 337 217 95 320 250 120 31 92 114 225 123 164 170 107 162 221 212 214 191 222 216 253 207 320 243 246 227 214 195 188
186 200 223 241 263 229 238 287 296 314 188 155 81 223 226 162 178 37 301 301 133 134 127 166 102 161 193 195 195 164 191 204 207 182 217 223 249 223 249 247 249 233 212 203 199
168 193 211 217 187 197 205 247 190 181 227 258 208 286 55 118 258 153 11 156 114 186 174 173 193 199 186 199 73 170 154 142 199 90 212 217 233 234 210 262 242 226 209 199 195
161 178 189 178 170 136 133 248 14 18 224 240 291 263 277 295 149 211 183 190 194 177 154 153 209 153 132 156 148 134 153 164 136 153 222 207 236 243 211 246 265 266 199 185 158
152 170 176 156 150 148 193 243 43 223 255 179 245 253 209 213 193 171 184 177 204 176 197 216 221 190 156 105 206 196 192 182 105 114 36 176 260 242 239 191 190 47 89 178 167
154 169 149 137 142 169 222 49 330 287 34 181 210 236 209 211 201 86 204 196 198 204 184 224 226 175 199 206 191 222 221 153 138 163 232 198 264 209 224 209 163 137 129 133 127
146 140 145 150 130 201 21 348 132 234 239 109 180 352 169 205 121 146 343 189 195 175 186 172 191 191 212 213 190 151 153 148 175 152 80 198 260 223 213 217 201 149 130 113 109
136 137 124 110 164 52 4 97 217 198 249 205 169 194 180 205 140 137 149 104 333 174 181 178 20 216 206 177 192 142 99 61 53 138 233 195 205 221 192 218 172 139 127 122 114
118 114 81 77 127 1 136 169 194 218 24 166 177 176 199 184 213 229 166 184 173 150 162 174 151 140 255 172 152 155 135 137 189 228 234 52 201 244 219 208 182 153 140 132 121
107 96 62 48 316 300 233 108 261 62 247 345 254 291 203 176 215 208 173 192 201 191 130 180 179 186 150 248 180 181 204 207 211 191 149 105 225 166 336 128 138 138 132 128 120
114 55 64 3 334 16 49 195 241 192 186 200 164 155 208 174 221 185 209 216 192 197 207 163 149 112 66 4 197 161 206 356 98 25 185 193 230 175 132 131 137 136 138 128 122
82 94 55 334 319 43 162 124 224 208 151 184 229 246 189 171 191 199 173 175 178 191 216 132 141 18 85 10 33 248 141 131 172 185 221 191 248 217 178 160 154 151 146 136 128
66 87 45 357 13 82 237 92 246 223 203 216 175 217 244 205 182 203 178 148 190 151 160 149 301 123 142 197 179 146 184 63 107 242 244 191 202 17 185 171 164 158 150 136 132
114 85 24 312 330 31 138 251 321 48 26 240 271 234 247 200 176 195 199 256 216 159 164 114 74 174 198 20 5 25 207 189 222 184 259 350 254 325 220 179 166 153 144 139 136
93 102 69 118 256 175 239 236 259 179 101 323 238 246 184 258 223 169 181 117 252 138 163 157 183 143 129 204 32 207 195 185 187 64 193 191 160 0 183 171 163 151 152 146 146
143 133 21 64 4 158 169 200 221 198 149 150 307 269 227 215 227 178 159 162 224 203 132 141 132 265 237 86 123 181 165 192 164 201 185 238 158 174 168 166 160 158 155 150 151
15 114 328 148 194 144 156 128 204 207 331 10 174 7 254 194 164 190 132 144 199 181 152 169 150 139 55 98 146 166 167 185 208 225 217 256 221 193 185 176 169 159 155 153 161
151 152 169 111 259 202 35 173 201 204 257 145 84 359 181 220 323 194 175 179 193 181 146 190 136 132 170 255 208 213 216 205 210 220 251 255 243 211 162 161 165 166 165 166 163
127 63 189 122 190 224 176 146 213 167 81 8 91 43 70 34 20 6 324 27 42 145 131 146 141 162 186 335 127 283 220 206 205 208 203 204 194 155 166 177 177 170 174 172 164